www.pogodaiklimat.ru

Погода и климат >> Архив погоды >> Россия >> Астраханская область >> Астрахань


АРХИВ ПОГОДЫ в Астрахани

Время (UTC), дата Ветер
(напр.,м/с)
 
Видим.   Явления Облачность Т
(С)
Тd
(С)
f
(%)
Тe
(С)
Тes
(С)
Комфортность P
(гПа)
Po
(гПа)
Тmin
(С)
Tmax
(С)
R
(мм)
R24
(мм)
S
(см)
09 18.04 В 5-10
{11}
10 км 9/0
[Ac trans Ci fib]
+20.1 +8.6 47 +21 +25 комфорт 1014.2 1016.7
12 18.04 В 4
{11}
10 км 8/0
[Ac trans Ci fib]
+19.2 +8.3 49 +20 +23 тепло 1013.2 1015.7
15 18.04 В 4
{11}
10 км 8/0
[Ac trans Ci fib]
+19.2 +8.3 49 +20 +20 тепло 1013.2 1015.7
18 18.04 В 3 4000 м дымка 9/9 600 м
[Cb cap]
+14.1 +11.8 86 +13 +13 тепло 1013.1 1015.6
21 18.04 В 1 4000 м дымка ясно +11.5 +10.6 94 +11 +11 тепло 1011.3 1013.8
00 19.04 СВ 1 500 м туман ?/? +9.6 +9.2 97 +9 +9 по сезону 1009.5 1012.1
03 19.04 В 1 4000 м дымка {туман} 8/4 1000 м
[Sc Ac trans Ci fib]
+10.4 +10.0 97 +10 +10 по сезону 1008.7 1011.2 +9.3
06 19.04 В 3 10 км {туман} 8/0
[Ci fib]
+20.7 +11.4 55 +23 +30 комфорт 1008.7 1011.1
09 19.04 Ю 3 10 км 9/3 1000 м
[Cu hum Ci]
+24.6 +8.0 35 +25 +32 комфорт 1007.7 1010.1
12 19.04 З 6-12
{14}
10 км пыльный позёмок 9/5 600 м
[Cu med, cong Ci sp]
+19.1 +11.4 61 +20 +21 тепло 1008.6 1011.1
15 19.04 З 8-16
{17}
10 км пыльный позёмок 10/8 600 м
[Cb cap Ac As]
+13.1 +6.7 65 +10 +10 прохладно 1012.6 1015.2 +25.4
18 19.04 СЗ 4
{16}
10 км слабый ливневой дождь 10/10 600 м
[Cb cap]
+11.2 +7.7 79 +9 +9 по сезону 1013.9 1016.5
21 19.04 З 5
{11}
10 км {ливн. осадки} 9/4 1000 м
[Sc Ac trans]
+9.4 +3.4 66 +6 +6 по сезону 1015.8 1018.4
00 20.04 З 5
{11}
10 км {ливн. осадки} 4/0
[Ci fib]
+6.6 +1.9 72 +3 +3 прохладно 1016.6 1019.2
03 20.04 З 5-10
{10}
10 км 9/8 600 м
[Sc Ci fib]
+6.9 +3.1 77 +3 +3 холодно 1017.8 1020.4 +5.9 0.3
06 20.04 З 5-12
{13}
10 км 10/10 600 м
[Cb cap]
+9.4 +2.9 64 +6 +6 холодно 1018.5 1021.1
09 20.04 З 6-10
{12}
10 км 8/8 600 м
[Sc diur, vesp]
+12.8 +3.3 52 +11 +12 прохладно 1018.1 1020.7
12 20.04
{11}
10 км н/о +13.5 +2.5 47 +12 +15 холодно 1018.7 1021.2
15 20.04 СЗ 3 10 км 3/0
[Ci fib]
+12.5 +2.4 50 +11 +12 прохладно 1019.0 1021.6 +13.8
18 20.04 СЗ 1 10 км ясно +8.3 +2.2 65 +8 +8 прохладно 1021.1 1023.7
21 20.04 С 1 10 км ясно +6.7 +1.0 67 +6 +6 прохладно 1020.5 1023.1
00 21.04 СВ 3 10 км ясно +5.6 -0.6 64 +3 +3 прохладно 1020.0 1022.6
03 21.04 СВ 3 10 км 4/0
[Ci fib]
+4.3 -0.6 70 +1 +2 очень
холодно
1019.8 1022.4 +3.4
06 21.04 В 3 10 км 5/3 1000 м
[Cu hum Ci fib]
+11.6 +3.7 58 +10 +16 прохладно 1019.4 1021.9
09 21.04 В 4 10 км 9/8 600 м
[Cb cap Ci sp]
+14.0 +4.3 52 +13 +15 по сезону 1017.5 1020.1
12 21.04 В 3 10 км 9/8 600 м
[Cb cap Ac trans]
+13.8 +4.8 55 +13 +14 прохладно 1016.6 1019.1
15 21.04 В 4 10 км 9/3 600 м
[Cb cap Ac trans Ci fib]
+11.9 +6.6 70 +10 +10 прохладно 1015.1 1017.6 +15.2
18 21.04 В 3 10 км 10/8 300 м
[Cb cap Ac As]
+10.2 +6.5 78 +8 +8 по сезону 1013.8 1016.4
21 21.04 СВ 2 10 км 10/8 300 м
[Cb cap Ac As]
+9.7 +6.1 78 +8 +8 по сезону 1011.8 1014.4
00 22.04 штиль 0 10 км 10/10 300 м
[Cb cap]
+10.1 +5.7 74 +10 +10 тепло 1009.5 1012.0
03 22.04 З 7-14
{14}
4000 м в посл. час ливневой дождь 9/9 300 м
[Cb cap]
+6.8 +4.9 88 +2 +2 очень
холодно
1010.7 1013.3 +6.8 0.3
06 22.04 З 5
{15}
10 км {ливн. осадки} 10/10 600 м
[Sc]
+9.6 +0.7 54 +7 +7 холодно 1010.9 1013.5 +6.1
09 22.04 ЮЗ 4 10 км 10/10 1000 м
[Sc]
+9.3 +2.1 61 +7 +7 очень
холодно
1012.3 1014.8
12 22.04 ЮЗ 11-21
{21}
10 км 9/9 600 м
[Cb cap]
+13.4 -0.7 38 +11 +11 холодно 1011.5 1014.0
15 22.04 ЮЗ 7-14
{21}
10 км 9/9 300 м
[Cb cap]
+11.0 +2.0 54 +8 +8 холодно 1013.7 1016.3 +13.7
18 22.04 ЮЗ 4
{14}
10 км ясно +8.2 +2.6 68 +5 +5 холодно 1017.1 1019.6
21 22.04 Ю 2 10 км ясно +6.0 +2.5 78 +4 +4 прохладно 1017.7 1020.3
00 23.04 Ю 3 10 км ясно +4.9 +1.9 81 +1 +1 холодно 1018.2 1020.9
03 23.04 Ю 2 10 км 9/6 1000 м
[Sc Ac trans]
+5.0 +1.9 80 +2 +3 очень
холодно
1018.3 1021.0 +4.0
06 23.04 Ю 2 10 км 10/0
[As op]
+10.5 +2.6 58 +9 +11 прохладно 1017.5 1020.1
09 23.04 В 3 10 км 10/0
[As op]
+13.8 +2.4 46 +13 +16 прохладно 1014.6 1017.1
12 23.04 В 4
{11}
10 км 10/0
[Ac trans Cs]
+13.7 +3.2 49 +12 +16 холодно 1011.4 1013.9
15 23.04 В 4
{11}
10 км 9/0
[Ac trans Ci]
+12.4 +4.5 59 +11 +11 прохладно 1005.1 1007.6 +14.7
18 23.04 В 4
{11}
10 км 6/0
[Ci fib]
+12.5 +6.9 69 +11 +11 по сезону 1001.0 1003.5
21 23.04 ЮВ 5-11
{11}
10 км 8/0
[Ac trans Ci fib]
+15.1 +7.7 61 +14 +14 тепло 1000.4 1002.9
00 24.04 З 5
{11}
10 км 4/0
[Ci fib]
+11.4 +7.4 76 +9 +9 по сезону 1000.6 1003.1
03 24.04 З 6-13
{19}
10 км пыльный позёмок 4/0
[Ac trans Ci sp]
+9.8 -0.1 50 +7 +7 прохладно 1005.2 1007.7 +9.8
06 24.04 ЮЗ 10-18
{18}
10 км пыльный позёмок 10/10 600 м
[Sc]
+10.3 +1.8 56 +6 +6 очень
холодно
1006.7 1009.3 +9.1
09 24.04 ЮЗ 10-16
{20}
10 км пыльный позёмок 8/6 600 м
[Sc Ac trans]
+13.3 +2.6 48 +10 +11 холодно 1007.5 1010.0
12 24.04 З 7-15
{17}
10 км пыльный позёмок 4/4 1000 м
[Sc]
+14.5 +2.2 43 +13 +14 прохладно 1009.3 1011.9
15 24.04 З 4
{15}
10 км пыльный позёмок 3/3 1000 м
[Sc Ac trans]
+13.4 +3.1 50 +12 +12 по сезону 1012.7 1015.2 +14.8
18 24.04 ЮЗ 2
{10}
10 км ясно +9.6 +3.2 64 +8 +8 прохладно 1015.8 1018.4
21 24.04 ЮЗ 3 10 км 3/0
[Ac trans]
+8.4 +4.0 74 +6 +6 прохладно 1017.3 1019.8
00 25.04 ЮЗ 4 10 км 9/5 600 м
[Sc Ac trans]
+9.0 +2.8 65 +6 +6 по сезону 1018.6 1021.2
03 25.04 ЮЗ 4 10 км 9/9 600 м
[Cb cap]
+9.0 +2.0 61 +6 +6 прохладно 1020.7 1023.3 +8.2

 

Местоположение метеостанции Астрахань (Астраханская область, Россия): широта 46.28 долгота 47.98 высота над уровнем моря -21 м.

В архиве по умолчанию представлена погода в Астрахани за последнюю неделю. Архивные данные за месяц целиком и за предыдущие месяцы, начиная с января 2011 года, Вы можете получить, выбрав интересующий диапазон дат из раскрывающегося списка и нажав кнопку "Ввод!".

Внимание! Время в таблицах - всемирное. Для получения местного времени необходимо прибавить поправку, которая в Астрахани равна 4 ч.

Смотрите также архив погоды в соседних городах и на ближайших метеорологических станциях:

Погода в Зеленге (Астраханская область, Россия) (50 км)
Погода в Досанге (Астраханская область, Россия) (71 км)
Погода в Лимане (Астраханская область, Россия) (79 км)
Погода в Ганюшкино (Атырауская область, Казахстан) (105 км)
Погода в Лагани (Калмыкия, Россия) (109 км)
Погода в Харабали (Астраханская область, Россия) (136 км)
Погода в Утте (Калмыкия, Россия) (151 км)
Погода в Юсте (Калмыкия, Россия) (158 км)
Погода в Исатай (Атырауская область, Казахстан) (170 км)
Погода в Артезиане (Калмыкия, Россия) (177 км)

Пояснения к столбцам:

Ветер - указаны скорость ветра в м/с - средняя за 10 мин, порывы в срок и между сроками (в фигурных скобках) и направление, откуда дует ветер: С - северный, СВ - северо-восточный, В - восточный, ЮВ - юго-восточный, Ю - южный, ЮЗ - юго-западный, З - западный, СЗ - северо-западный.
Видимость - горизонтальная дальность видимости в метрах или километрах. При видимости от 1 до 10 км при отсутствии осадков обычно наблюдается дымка, при ухудшении видимости до 1 км и менее - туман. В сухую погоду видимость может ухудшаться дымом, пылью или мглою.
Явления - указаны атмосферные явления, наблюдавшиеся в срок или в последний час перед сроком; фигурными скобками обозначены явления, наблюдавшиеся между сроками (за 1-3 часа до срока); квадратными скобками обозначены град или гололедные отложения с указанием их диаметра в мм.
Облачность - указаны через наклонную черту общая и нижняя облачность в баллах и высота нижней границы облаков в метрах; квадратными скобками обозначены формы облаков: Ci - перистые, Cs - перисто-слоистые, Cc - перисто-кучевые, Ac - высококучевые, As - высокослоистые, Sc - слоисто-кучевые, Ns - слоисто-дождевые, Cu - кучевые, Cb - кучево-дождевые. Подробнее классификацию облаков см. в Атласе облаков (PDF).
T - Температура воздуха - температура, измеренная на высоте 2 м над землей.
Td - Температура точки росы - температура, при понижении до которой содержащийся в воздухе водяной пар достигнет насыщения.
f - Относительная влажность воздуха - влажноcть воздуха, измеренная на высоте 2 м над землей.
Te - Эффективная температура - температура, которую ощущает одетый по сезону человек в тени. Характеристика душности погоды. При расчете учитывается влияние влажности воздуха и скорости ветра на теплоощущения человека.
Tes - Эффективная температура на солнце - температура, которую ощущает человек, с поправкой на солнечный нагрев. Характеристика знойности погоды. Зависит от высоты солнца над горизонтом, облачности и скорости ветра. Ночью, в пасмурную погоду, а также при ветре 12 м/с и более поправка равна нулю.
P - Атмосферное давление - приведенное к уровню моря атмосферное давление.
Po - Атмосферное давление - измеренное на уровне метеостанции атмосферное давление.
Tmin - Минимальная температура - минимум температуры воздуха на высоте 2 м над землей.
Tmax - Максимальная температура - максимум температуры воздуха на высоте 2 м над землей.
R - Количество осадков - Количество выпавших осадков за период времени, мм. При наведении курсора мыши на число - период времени, за который выпало указанное количество осадков.
R24 - Количество осадков - Количество выпавших осадков за 24 часа, мм.
S - Снежный покров - Высота снежного покрова, см. При наведении курсора мыши на число - состояние снежного покрова и степень покрытия местности в баллах.